Showing default

O3B FM13, 43234

Orbit data source: Space-Track

O3B FM13, 43234 is a payload satellite owned by O3B SES (JE) that was launched on Fri, 09 Mar 2018 UTC via a SOYUZ-ST-B launch vehicle from the French Guiana (FRGUI). Payloads include a variety of satellites, spacecraft, and rockets equipped with specific instruments for various scientific and technological missions. These include communications satellites like Starlink; space stations such as the ISS; scientific satellites like the Hubble; Earth observation satellites from companies like Planet Labs, Umbra, and HawkEye 360; GPS; miniature CubeSats for education and research; and military/defense satellites.

Loading next visibility...
O3B FM13 details
Identifier
43234, 2018-024D
Orbit
Active
Last TLE update15 hours ago
Origin
Flag of JEO3B SES (JE / O3B)
ManufacturerThales Alenia
MissionOperational Commercial Communications
Bus & MotorPRISMA?, LS-400 AOCS?
Mass700 kg wet, ~500 kg dry
Launch date (UTC)
2018-03-09 (7 years ago)
Launch vehicle
SOYUZ-ST-B
Launch site
French Guiana (FRGUI)
Object type
Payload
Rocket body
Debris
Shape & HBRTrap Box + 2 Pan, 12 m
Radar Cross Section21.980 m², Large (>1 m²)

Expand to show TLE details & history

TLE from 15 hours ago
0 O3B FM13
1 43234U 18024D   24361.33357795 -.00000012  00000-0  00000-0 0  9993
2 43234   0.0587 332.2345 0003395 313.4642  74.2655  5.00115276124152
Epoch: 2024-12-26T08:00Z
Definitive object data (Epoch: 2024-12-26T08:00:21.134Z)
Latitude0.02787°
Longitude144.59749°
Altitude8,063.045 km
Speed5.255 km/s
True Right ascension00h 00m 00s
True Declination0° 01' 40"
Sunlit
Object was in daylight at TLE epoch
Visualization TLE readout
Latitude0.0625°
Longitude-159.43499°
Altitude8,067.517 km
Speed5.253 km/s
Apparent Right ascension05h 02m 25s
Apparent Declination-15° 52' 44"
Sunlit
Object is in daylight
Visualization observer readout
Local Sidereal Time22:31:54
Azimuth97.641° ESE
Elevation-15.874°
Doppler factor1
Orbital elements
Apogee altitude8,073.858 km
Perigee altitude8,064.048 km
Semi-major axis14,447.09 km
Eccentricity0.0003395
Inclination0.0587°
RAAN332.2345°
Arg. of periapsis313.4642°
True anomaly74.30295°
Mean anomaly74.2655°
Eccentric anomaly74.28422°
Mean motion1.24989 °/min
BSTARUnknown
Orbital period288.02 mins
Loading maneuver chart data...
Loading historical data...
Loading historical data...
Loading historical data...
Loading historical data...
Loading historical data...
Loading historical data...
Loading historical data...
Other satellites on launch #24 in the year 2018 (2018-03-09 UTC)

O3B FM13 Visibility forecast

Observer location: undefined°, undefined

Span
Click to sort rows by Start time (UTC) header in descending order
Start Az.
Max El. time (UTC)
Max El. Az.
Max El.
End time (UTC)
End Az.
80 mins2024-12-27 03:10:38.136Z232.658° WSW2024-12-27 03:50:38.136Z180.01° SSW24.432°2024-12-27 04:30:38.136Z127.359° SE
79 mins2024-12-27 09:11:38.136Z231.719° WSW2024-12-27 09:50:38.136Z180.095° SSW24.392°2024-12-27 10:30:38.136Z127.469° SE
79 mins2024-12-27 15:11:38.136Z231.704° WSW2024-12-27 15:50:38.136Z180.113° SSW24.308°2024-12-27 16:30:38.136Z127.447° SE
78 mins2024-12-27 21:12:38.136Z230.654° WSW2024-12-27 21:50:38.136Z180.03° SSW24.349°2024-12-27 22:30:38.136Z127.338° SE
|